sat.trackr.live / text

‹ back to catalog

STARLINK-2754

NORAD 48641 · 2021-044D

PAYLOAD ACTIVE UNKNOWN

§ Identity

Operator
Country
US
Launch date
2021-05-26
Launch site
AFETR
Launch vehicle
Mass (kg)
RCS (m²)

Purposes: comms

External: N2YO · Heavens-Above · Gunter

§ Orbital elements

Epoch: 2026-09-19T16:50:11.185440Z

Period
94.01 min
Inclination
53.1580°
Eccentricity
0.0001215
Mean motion
15.31711943 rev/d
Perigee alt
469.9 km
Apogee alt
471.5 km
Semi-major
6,848.8 km
B*
1.6681e-4
RAAN
291.1875°
Arg perigee
92.6484°
Mean anomaly
267.4657°
Rev number
29,355

§ Raw data

STARLINK-27541 48641U 21044D   26262.70151835  .00004817  00000+0  16681-3 0  99962 48641  53.1580 291.1875 0001215  92.6484 267.4657 15.31711943293558

JSON: /api/v1/satellites/48641 · /tle

For live sub-satellite position, see the globe view (requires WebGL).

§ Visibility from observer

Set your observer location to see the next 7 days of passes ≥ 10°. The values pass through the URL so the page stays shareable.

No JS? Fill the form by hand. The geolocation button needs JavaScript.